TimeCST,TemperatureF,Dew PointF,Humidity,Sea Level PressureIn,VisibilityMPH,Wind Direction,Wind SpeedMPH,Gust SpeedMPH,PrecipitationIn,Events,Conditions,WindDirDegrees,DateUTC
12:15 AM,32.0,32.0,100,29.79,3.0,SE,4.6,-,N/A,,Scattered Clouds,130,2012-12-03 06:15:00
12:35 AM,33.8,33.8,100,29.77,3.0,SE,5.8,-,N/A,,Scattered Clouds,140,2012-12-03 06:35:00
12:55 AM,33.8,33.8,100,29.76,3.0,SE,6.9,-,N/A,,Scattered Clouds,140,2012-12-03 06:55:00
1:15 AM,37.4,37.4,100,29.75,4.0,SSE,10.4,23.0,N/A,,Mostly Cloudy,160,2012-12-03 07:15:00
1:35 AM,39.2,37.4,93,29.75,4.0,SSE,8.1,17.3,N/A,,Overcast,160,2012-12-03 07:35:00
1:55 AM,41.0,37.4,87,29.74,4.0,SSE,9.2,-,N/A,,Overcast,150,2012-12-03 07:55:00
2:15 AM,41.0,37.4,87,29.73,4.0,SSE,8.1,-,N/A,,Overcast,150,2012-12-03 08:15:00
2:35 AM,41.0,37.4,87,29.73,4.0,SSE,8.1,-,N/A,,Mostly Cloudy,160,2012-12-03 08:35:00
2:55 AM,41.0,37.4,87,29.72,4.0,SSE,9.2,-,N/A,,Mostly Cloudy,150,2012-12-03 08:55:00
3:15 AM,41.0,37.4,87,29.71,4.0,SE,8.1,-,N/A,,Mostly Cloudy,140,2012-12-03 09:15:00
3:35 AM,41.0,39.2,93,29.69,4.0,SSE,9.2,-,N/A,,Overcast,160,2012-12-03 09:35:00
3:55 AM,41.0,39.2,93,29.69,4.0,SSE,8.1,-,N/A,,Overcast,150,2012-12-03 09:55:00
4:15 AM,41.0,39.2,93,29.68,4.0,SSE,9.2,-,N/A,,Overcast,160,2012-12-03 10:15:00
4:35 AM,41.0,41.0,100,29.67,4.0,SSE,8.1,-,N/A,,Overcast,150,2012-12-03 10:35:00
4:55 AM,41.0,41.0,100,29.66,4.0,SSE,6.9,-,N/A,,Overcast,150,2012-12-03 10:55:00
5:15 AM,42.8,41.0,93,29.65,4.0,SSE,8.1,-,N/A,,Overcast,150,2012-12-03 11:15:00
5:35 AM,42.8,41.0,93,29.65,4.0,SSE,10.4,18.4,N/A,,Overcast,160,2012-12-03 11:35:00
5:55 AM,42.8,41.0,93,29.64,4.0,SSE,11.5,-,N/A,,Overcast,150,2012-12-03 11:55:00
6:15 AM,42.8,42.8,100,29.62,3.0,SE,11.5,18.4,N/A,,Overcast,140,2012-12-03 12:15:00
6:35 AM,42.8,42.8,100,29.61,2.0,SSE,10.4,-,N/A,,Overcast,150,2012-12-03 12:35:00
6:55 AM,42.8,42.8,100,29.61,1.8,SSE,10.4,17.3,N/A,,Overcast,150,2012-12-03 12:55:00
7:15 AM,44.6,42.8,93,29.59,1.2,SSE,9.2,19.6,N/A,,Overcast,150,2012-12-03 13:15:00
7:35 AM,44.6,44.6,100,29.58,1.5,SSE,11.5,16.1,N/A,,Overcast,150,2012-12-03 13:35:00
7:55 AM,44.6,44.6,100,29.58,0.8,SSE,11.5,-,N/A,,Overcast,160,2012-12-03 13:55:00
8:15 AM,44.6,44.6,100,29.59,1.0,South,12.7,18.4,N/A,,Overcast,180,2012-12-03 14:15:00
9:15 AM,46.4,46.4,100,29.56,1.8,South,13.8,-,N/A,,Overcast,180,2012-12-03 15:15:00
9:35 AM,46.4,46.4,100,29.55,1.5,South,10.4,17.3,N/A,,Overcast,190,2012-12-03 15:35:00
10:15 AM,48.2,48.2,100,29.54,0.8,South,11.5,-,N/A,,Overcast,190,2012-12-03 16:15:00
10:35 AM,48.2,48.2,100,29.54,1.0,South,10.4,-,N/A,,Light Drizzle,190,2012-12-03 16:35:00
10:55 AM,48.2,48.2,100,29.53,1.5,South,9.2,-,N/A,,Overcast,190,2012-12-03 16:55:00
11:15 AM,48.2,48.2,100,29.52,1.5,South,9.2,-,N/A,,Light Drizzle,190,2012-12-03 17:15:00
11:35 AM,50.0,48.2,94,29.51,1.8,South,8.1,-,N/A,Rain,Light Rain,190,2012-12-03 17:35:00
11:55 AM,50.0,50.0,100,29.50,3.0,SSW,11.5,-,N/A,,Overcast,200,2012-12-03 17:55:00
12:15 PM,50.0,50.0,100,29.50,4.0,SW,11.5,-,N/A,,Overcast,220,2012-12-03 18:15:00
12:35 PM,50.0,48.2,94,29.51,5.0,SW,13.8,-,N/A,,Overcast,230,2012-12-03 18:35:00
12:55 PM,50.0,46.4,87,29.50,7.0,SW,11.5,18.4,N/A,,Overcast,230,2012-12-03 18:55:00
1:15 PM,50.0,46.4,87,29.51,7.0,WSW,10.4,-,N/A,,Overcast,240,2012-12-03 19:15:00
1:35 PM,50.0,44.6,82,29.52,7.0,WSW,17.3,20.7,N/A,,Overcast,250,2012-12-03 19:35:00
1:55 PM,48.2,42.8,82,29.52,10.0,WSW,12.7,23.0,N/A,,Overcast,250,2012-12-03 19:55:00
2:15 PM,50.0,42.8,76,29.52,10.0,West,10.4,17.3,N/A,,Overcast,260,2012-12-03 20:15:00
2:35 PM,50.0,42.8,76,29.54,10.0,West,10.4,-,N/A,,Overcast,260,2012-12-03 20:35:00
2:55 PM,50.0,41.0,71,29.55,10.0,West,11.5,16.1,N/A,,Overcast,270,2012-12-03 20:55:00
3:15 PM,48.2,41.0,76,29.57,10.0,West,9.2,17.3,N/A,,Overcast,280,2012-12-03 21:15:00
3:35 PM,48.2,39.2,71,29.60,10.0,West,15.0,21.9,N/A,,Overcast,270,2012-12-03 21:35:00
3:55 PM,46.4,39.2,76,29.60,10.0,West,9.2,20.7,N/A,,Overcast,280,2012-12-03 21:55:00
4:15 PM,46.4,39.2,76,29.63,10.0,West,11.5,18.4,N/A,,Overcast,270,2012-12-03 22:15:00
4:35 PM,44.6,37.4,76,29.65,10.0,West,11.5,19.6,N/A,,Scattered Clouds,280,2012-12-03 22:35:00
4:55 PM,42.8,37.4,81,29.67,10.0,West,10.4,-,N/A,,Clear,260,2012-12-03 22:55:00
5:15 PM,42.8,35.6,76,29.68,10.0,West,8.1,16.1,N/A,,Clear,260,2012-12-03 23:15:00
5:35 PM,41.0,35.6,81,29.69,10.0,WSW,11.5,-,N/A,,Clear,250,2012-12-03 23:35:00
5:55 PM,41.0,35.6,81,29.70,10.0,WSW,6.9,-,N/A,,Clear,240,2012-12-03 23:55:00
6:15 PM,39.2,35.6,87,29.71,10.0,SW,8.1,-,N/A,,Clear,220,2012-12-04 00:15:00
6:55 PM,37.4,33.8,87,29.73,10.0,SW,9.2,-,N/A,,Clear,230,2012-12-04 00:55:00
7:15 PM,37.4,33.8,87,29.74,10.0,WSW,9.2,-,N/A,,Clear,240,2012-12-04 01:15:00
7:35 PM,37.4,33.8,87,29.74,10.0,SW,9.2,-,N/A,,Clear,230,2012-12-04 01:35:00
7:55 PM,37.4,33.8,87,29.76,10.0,SW,9.2,-,N/A,,Clear,230,2012-12-04 01:55:00
8:15 PM,37.4,32.0,81,29.76,10.0,SW,9.2,-,N/A,,Clear,220,2012-12-04 02:15:00
8:35 PM,37.4,32.0,81,29.76,10.0,SW,9.2,-,N/A,,Clear,230,2012-12-04 02:35:00
8:55 PM,37.4,32.0,81,29.77,10.0,SW,10.4,-,N/A,,Clear,230,2012-12-04 02:55:00
9:15 PM,39.2,32.0,75,29.77,10.0,WSW,11.5,-,N/A,,Clear,240,2012-12-04 03:15:00
9:35 PM,37.4,32.0,81,29.78,10.0,WSW,11.5,-,N/A,,Clear,240,2012-12-04 03:35:00
9:55 PM,39.2,32.0,75,29.78,10.0,WSW,12.7,-,N/A,,Clear,240,2012-12-04 03:55:00
10:15 PM,37.4,32.0,81,29.79,10.0,SW,12.7,17.3,N/A,,Clear,230,2012-12-04 04:15:00
10:35 PM,37.4,30.2,75,29.79,10.0,WSW,12.7,-,N/A,,Clear,240,2012-12-04 04:35:00
10:55 PM,37.4,30.2,75,29.79,10.0,WSW,13.8,17.3,N/A,,Clear,240,2012-12-04 04:55:00
11:15 PM,37.4,30.2,75,29.79,10.0,WSW,12.7,19.6,N/A,,Clear,250,2012-12-04 05:15:00
11:35 PM,37.4,30.2,75,29.81,10.0,WSW,13.8,-,N/A,,Clear,250,2012-12-04 05:35:00